Location: Copeville
(33.0796°N, 96.4155°W)
Time: 10:47:10
(UTC+00:00)

Cosmos 1805 Rocket - Pass Details

Date: 09 July 2022
Orbit: 605 x 629 km, 82.5° (Epoch: 09 August)

Event Time Altitude Azimuth Distance (km) Brightness Sun altitude
Exits shadow 08:49:16 61° 96° (E) 703 3.8 -25.5°
Maximum altitude 08:49:17 61° 94° (E) 703 3.8 -25.5°
Drops below altitude 10° 08:53:37 10° 14° (NNE) 1,981 7.0 -25.0°
Sets 08:55:51 0° 11° (N) 2,886 8.0 -24.7°
